Location: ?????????
(54.7630°N, 39.4991°E)
Time: 01:51:13
(UTC+00:00)

COSMOS 2455 - Pass Details

Date: 14 April 2026
Orbit: 901 x 907 km, 67.1° (Epoch: 20 May)

Event Time Altitude Azimuth Distance (km) Brightness Sun altitude
Rises 21:03:47 0° 318° (NW) 3,545 6.7 -25.5°
Reaches altitude 10° 21:06:20 10° 314° (NW) 2,600 5.8 -25.5°
Maximum altitude 21:12:13 56° 238° (WSW) 1,068 3.0 -25.5°
Enters shadow 21:12:31 56° 226° (SW) 1,075 2.9 -25.5°
